Location: Newark
(54.2500°N, 9.1833°E)
Time: 03:33:40
(UTC+00:00)

Explorer 7 - Visible Passes

Search period start: 09 December 2019 00:00
Search period end: 19 December 2019 00:00
Orbit: 485 x 680 km, 50.3° (Epoch: 08 December)

Date Brightness Start Highest point End Pass type
(mag) Time Alt. Az. Time Alt. Az. Time Alt. Az.
09 Dec 8.4 16:28:00 10° SW 16:32:24 33° SSE 16:35:51 15° E visible
09 Dec 7.7 18:07:47 10° WSW 18:12:10 52° SSW 18:12:10 52° SSW visible
09 Dec 10.2 19:48:12 10° W 19:48:29 12° W 19:48:29 12° W visible
10 Dec 8.1 16:32:36 10° SW 16:37:11 40° SSE 16:40:37 17° E visible
10 Dec 7.8 18:12:38 10° WSW 18:16:56 52° SSW 18:16:56 52° SSW visible
10 Dec 10.3 19:53:08 10° W 19:53:15 11° W 19:53:15 11° W visible
11 Dec 7.9 16:37:18 10° WSW 16:42:01 47° SSE 16:45:23 18° E visible
11 Dec 7.9 18:17:31 10° W 18:21:42 49° SW 18:21:42 49° SW visible
12 Dec 7.8 16:42:05 10° WSW 16:46:51 52° S 16:50:09 19° ESE visible
12 Dec 8.1 18:22:25 10° W 18:26:29 45° SW 18:26:29 45° SW visible
13 Dec 7.7 16:46:55 10° WSW 16:51:43 55° S 16:54:58 20° ESE visible
13 Dec 8.3 18:27:20 10° W 18:31:18 40° SW 18:31:18 40° SW visible
14 Dec 7.8 16:51:47 10° W 16:56:35 55° S 16:59:50 20° ESE visible
14 Dec 8.5 18:32:17 10° W 18:36:09 35° SW 18:36:09 35° SW visible
15 Dec 7.8 16:56:40 10° W 17:01:27 52° S 17:04:45 19° ESE visible
15 Dec 8.8 18:37:17 10° W 18:41:05 29° SW 18:41:05 29° SW visible
16 Dec 8.0 17:01:34 10° W 17:06:18 47° SSW 17:09:46 17° SE visible
16 Dec 9.1 18:42:23 10° W 18:46:06 23° SW 18:46:06 23° SW visible
17 Dec 8.3 17:06:30 10° W 17:11:06 41° SSW 17:14:54 14° SE visible
17 Dec 9.5 18:47:39 10° W 18:50:55 18° SW 18:51:15 18° SSW visible
18 Dec 8.7 17:11:28 10° W 17:15:54 34° SSW 17:20:13 11° SE visible
18 Dec 9.8 18:53:19 10° WSW 18:55:31 13° SW 18:56:34 12° SSW visible
